This is the latest recevied weather packets stored in our database for station/object KE8WMS. If no packets are shown the sender has not sent any weather packets the latest 10 day(s).
| Time | Temp. | Humidity | Pressure | Rain* | Wind** | Luminosity | Snow |
|---|---|---|---|---|---|---|---|
| 1778196647 | 11.67° C | 49% | 1008.8 hPa | 0 mm | - | 33 W/m² | - |
| 1778196342 | 11.67° C | 47% | 1008.6 hPa | 0 mm | - | 35 W/m² | - |
| 1778196040 | 12.22° C | 46% | 1008.7 hPa | 0 mm | - | 37 W/m² | - |
| 1778195736 | 12.22° C | 46% | 1008.9 hPa | 0 mm | - | 39 W/m² | - |
| 1778195433 | 12.22° C | 48% | 1008.8 hPa | 0 mm | - | 40 W/m² | - |
| 1778195130 | 12.22° C | 47% | 1008.9 hPa | 0 mm | - | 47 W/m² | - |
| 1778194827 | 12.22° C | 47% | 1009.1 hPa | 0 mm | - | 44 W/m² | - |
| 1778194521 | 12.22° C | 47% | 1009.1 hPa | 0 mm | - | 45 W/m² | - |
| 1778194218 | 12.22° C | 47% | 1009 hPa | 0 mm | - | 47 W/m² | - |
| 1778193914 | 12.22° C | 46% | 1009 hPa | 0 mm | - | 48 W/m² | - |
| 1778193611 | 12.22° C | 45% | 1008.9 hPa | 0 mm | - | 50 W/m² | - |
| 1778193307 | 12.78° C | 46% | 1009.1 hPa | 0 mm | - | 90 W/m² | - |
| 1778193004 | 12.78° C | 46% | 1008.9 hPa | 0 mm | - | 56 W/m² | - |
| 1778192701 | 12.78° C | 46% | 1009 hPa | 0 mm | - | 96 W/m² | - |
| 1778192397 | 12.78° C | 45% | 1009.3 hPa | 0 mm | - | 84 W/m² | - |
| 1778192094 | 12.78° C | 45% | 1009.1 hPa | 0 mm | - | 59 W/m² | - |
| 1778191791 | 12.78° C | 46% | 1008.9 hPa | 0 mm | - | 61 W/m² | - |
| 1778191488 | 13.33° C | 44% | 1008.9 hPa | 0 mm | - | 86 W/m² | - |
| 1778191184 | 13.33° C | 46% | 1009 hPa | 0 mm | - | 256 W/m² | - |
| 1778190881 | 13.33° C | 45% | 1009.2 hPa | 0 mm | - | 271 W/m² | - |
| 1778190579 | 13.33° C | 44% | 1009.1 hPa | 0 mm | - | 285 W/m² | - |
| 1778190276 | 13.33° C | 44% | 1009 hPa | 0 mm | - | 300 W/m² | - |
| 1778189972 | 13.89° C | 42% | 1008.8 hPa | 0 mm | - | 314 W/m² | - |
| 1778189668 | 13.89° C | 44% | 1008.7 hPa | 0 mm | - | 326 W/m² | - |
| 1778189365 | 13.89° C | 46% | 1008.9 hPa | 0 mm | - | 340 W/m² | - |
* Rain latest hour (hover to see other rain measurements)
** Current wind speed in m/s (hover to see current wind gust speed)